| time (UTC) | temp C | wind direction | speed KPH | gust KPH | rain 1hr cm | rain 24hr cm | rain mn cm | humidity % | barometer mb |
| 20260509222552 | 18 | 207 | 4.8 | 0.0 | 0.00 | 0.00 | 0.00 | 82 | 1010.8 |
| 20260509222051 | 18 | 211 | 3.2 | 0.0 | 0.00 | 0.00 | 0.00 | 83 | 1010.8 |
| 20260509221551 | 18 | 166 | 4.8 | 0.0 | 0.00 | 0.00 | 0.00 | 84 | 1010.8 |
| 20260509221052 | 18 | 167 | 4.8 | 0.0 | 0.00 | 0.00 | 0.00 | 84 | 1010.9 |
| 20260509220551 | 17 | 211 | 4.8 | 0.0 | 0.00 | 0.00 | 0.00 | 85 | 1010.9 |
| 20260509220050 | 17 | 184 | 4.8 | 0.0 | 0.00 | 0.00 | 0.00 | 85 | 1010.9 |
| 20260509215554 | 17 | 190 | 4.8 | 0.0 | 0.00 | 0.00 | 0.00 | 84 | 1011.0 |
| 20260509215050 | 17 | 163 | 4.8 | 0.0 | 0.00 | 0.00 | 0.00 | 86 | 1011.0 |
| 20260509214549 | 17 | 181 | 4.8 | 0.0 | 0.00 | 0.00 | 0.00 | 85 | 1011.0 |
| 20260509214053 | 17 | 175 | 6.4 | 0.0 | 0.00 | 0.00 | 0.00 | 84 | 1011.1 |
| 20260509213549 | 18 | 157 | 6.4 | 0.0 | 0.00 | 0.00 | 0.00 | 85 | 1011.1 |
| 20260509213049 | 18 | 131 | 4.8 | 0.0 | 0.00 | 0.00 | 0.00 | 84 | 1011.1 |
| 20260509212548 | 18 | 136 | 4.8 | 0.0 | 0.00 | 0.00 | 0.00 | 84 | 1011.3 |
| 20260509212049 | 18 | 142 | 4.8 | 0.0 | 0.00 | 0.00 | 0.00 | 83 | 1011.3 |
| 20260509211555 | 18 | 160 | 4.8 | 0.0 | 0.00 | 0.00 | 0.00 | 83 | 1011.3 |
| 20260509211048 | 18 | 206 | 4.8 | 0.0 | 0.00 | 0.00 | 0.00 | 83 | 1011.4 |
| 20260509210548 | 18 | 239 | 4.8 | 0.0 | 0.00 | 0.00 | 0.00 | 83 | 1011.4 |
| 20260509210054 | 18 | 212 | 4.8 | 0.0 | 0.00 | 0.00 | 0.00 | 83 | 1011.4 |
| 20260509205545 | 18 | 188 | 4.8 | 0.0 | 0.00 | 0.00 | 0.00 | 84 | 1011.4 |
| 20260509205044 | 18 | 148 | 4.8 | 0.0 | 0.00 | 0.00 | 0.00 | 85 | 1011.4 |
| 20260509204546 | 17 | 175 | 4.8 | 0.0 | 0.00 | 0.00 | 0.00 | 86 | 1011.4 |
| 20260509204044 | 17 | 160 | 4.8 | 0.0 | 0.00 | 0.00 | 0.00 | 85 | 1011.5 |
| 20260509203545 | 17 | 178 | 4.8 | 0.0 | 0.00 | 0.00 | 0.00 | 85 | 1011.5 |
| 20260509203042 | 17 | 164 | 4.8 | 0.0 | 0.00 | 0.00 | 0.00 | 87 | 1011.5 |
| 20260509202541 | 17 | 198 | 4.8 | 0.0 | 0.00 | 0.00 | 0.00 | 88 | 1011.7 |
| 20260509202041 | 17 | 171 | 4.8 | 0.0 | 0.00 | 0.00 | 0.00 | 89 | 1011.7 |
| 20260509201539 | 17 | 181 | 4.8 | 0.0 | 0.00 | 0.00 | 0.00 | 89 | 1011.7 |
| 20260509201037 | 16 | 155 | 4.8 | 0.0 | 0.00 | 0.00 | 0.00 | 90 | 1011.9 |
| 20260509200538 | 16 | 211 | 6.4 | 0.0 | 0.00 | 0.00 | 0.00 | 89 | 1011.9 |
| 20260509200043 | 16 | 153 | 4.8 | 0.0 | 0.00 | 0.00 | 0.00 | 90 | 1011.9 |
| 20260509195538 | 16 | 167 | 4.8 | 0.0 | 0.00 | 0.00 | 0.00 | 90 | 1012.1 |
| 20260509195033 | 16 | 180 | 4.8 | 0.0 | 0.00 | 0.00 | 0.00 | 91 | 1012.1 |
| 20260509194535 | 16 | 161 | 4.8 | 0.0 | 0.00 | 0.00 | 0.00 | 90 | 1012.1 |
| 20260509194035 | 16 | 205 | 4.8 | 0.0 | 0.00 | 0.00 | 0.00 | 91 | 1012.2 |
| 20260509193533 | 16 | 198 | 6.4 | 0.0 | 0.00 | 0.00 | 0.00 | 91 | 1012.2 |
| 20260509193032 | 16 | 159 | 6.4 | 0.0 | 0.00 | 0.00 | 0.00 | 91 | 1012.2 |
| 20260509192531 | 16 | 179 | 6.4 | 0.0 | 0.00 | 0.00 | 0.00 | 92 | 1012.3 |
| 20260509192031 | 16 | 247 | 6.4 | 0.0 | 0.00 | 0.00 | 0.00 | 92 | 1012.3 |
| 20260509191530 | 16 | 169 | 4.8 | 0.0 | 0.00 | 0.00 | 0.00 | 92 | 1012.3 |
| 20260509191033 | 16 | 207 | 4.8 | 0.0 | 0.00 | 0.00 | 0.00 | 93 | 1012.2 |
| 20260509190531 | 16 | 159 | 4.8 | 0.0 | 0.00 | 0.00 | 0.00 | 94 | 1012.2 |
| 20260509190035 | 16 | 151 | 4.8 | 0.0 | 0.00 | 0.00 | 0.00 | 94 | 1012.2 |
| 20260509185531 | 16 | 195 | 4.8 | 0.0 | 0.00 | 0.00 | 0.00 | 94 | 1012.4 |
| 20260509185031 | 15 | 196 | 4.8 | 0.0 | 0.00 | 0.00 | 0.00 | 95 | 1012.4 |
| 20260509184534 | 15 | 204 | 4.8 | 0.0 | 0.00 | 0.00 | 0.00 | 95 | 1012.4 |
| 20260509184027 | 15 | 157 | 4.8 | 0.0 | 0.00 | 0.00 | 0.00 | 95 | 1012.5 |
| 20260509183526 | 15 | 161 | 4.8 | 0.0 | 0.00 | 0.00 | 0.00 | 96 | 1012.5 |
| 20260509183025 | 15 | 139 | 4.8 | 0.0 | 0.00 | 0.00 | 0.00 | 96 | 1012.5 |
| 20260509182524 | 15 | 179 | 4.8 | 0.0 | 0.00 | 0.00 | 0.00 | 96 | 1012.6 |
| 20260509182023 | 15 | 155 | 4.8 | 0.0 | 0.00 | 0.00 | 0.00 | 96 | 1012.6 |
| 20260509181523 | 15 | 175 | 3.2 | 0.0 | 0.00 | 0.00 | 0.00 | 96 | 1012.6 |
| 20260509181023 | 15 | 215 | 3.2 | 0.0 | 0.00 | 0.00 | 0.00 | 96 | 1012.7 |
| 20260509180522 | 14 | 164 | 3.2 | 0.0 | 0.00 | 0.00 | 0.00 | 96 | 1012.7 |
| 20260509180023 | 14 | 118 | 3.2 | 0.0 | 0.00 | 0.00 | 0.00 | 96 | 1012.7 |
| 20260509175518 | 13 | 163 | 3.2 | 0.0 | 0.00 | 0.00 | 0.00 | 96 | 1012.8 |
| 20260509175018 | 13 | 176 | 3.2 | 0.0 | 0.00 | 0.00 | 0.00 | 96 | 1012.8 |
| 20260509174519 | 13 | 183 | 1.6 | 0.0 | 0.00 | 0.00 | 0.00 | 96 | 1012.8 |
| 20260509174017 | 13 | 157 | 1.6 | 0.0 | 0.00 | 0.00 | 0.00 | 96 | 1012.8 |
| 20260509173517 | 13 | 173 | 3.2 | 0.0 | 0.00 | 0.00 | 0.00 | 96 | 1012.8 |
| 20260509173049 | 13 | 165 | 3.2 | 0.0 | 0.00 | 0.00 | 0.00 | 96 | 1012.8 |
| 20260509172517 | 13 | 201 | 3.2 | 0.0 | 0.00 | 0.00 | 0.00 | 96 | 1012.7 |
| 20260509172017 | 13 | 141 | 1.6 | 0.0 | 0.00 | 0.00 | 0.00 | 96 | 1012.7 |
| 20260509171526 | 13 | 174 | 1.6 | 0.0 | 0.00 | 0.00 | 0.00 | 96 | 1012.7 |
| 20260509171016 | 13 | 175 | 1.6 | 0.0 | 0.00 | 0.00 | 0.00 | 96 | 1012.4 |
| 20260509170516 | 13 | 28 | 3.2 | 0.0 | 0.00 | 0.00 | 0.00 | 96 | 1012.4 |
| 20260509170017 | 13 | 5 | 3.2 | 0.0 | 0.00 | 0.00 | 0.00 | 96 | 1012.4 |
| 20260509165515 | 13 | 36 | 3.2 | 0.0 | 0.00 | 0.00 | 0.00 | 96 | 1012.4 |
| 20260509165015 | 13 | 92 | 1.6 | 0.0 | 0.00 | 0.00 | 0.00 | 96 | 1012.4 |
| 20260509164517 | 13 | 27 | 1.6 | 0.0 | 0.00 | 0.00 | 0.00 | 96 | 1012.4 |
| 20260509164016 | 13 | 69 | 1.6 | 0.0 | 0.00 | 0.00 | 0.00 | 96 | 1012.5 |
| 20260509163513 | 13 | 73 | 1.6 | 0.0 | 0.00 | 0.00 | 0.00 | 96 | 1012.5 |
| 20260509163021 | 13 | 5 | 3.2 | 0.0 | 0.00 | 0.00 | 0.00 | 96 | 1012.5 |
| 20260509162513 | 13 | 30 | 3.2 | 0.0 | 0.00 | 0.00 | 0.00 | 96 | 1012.5 |
| 20260509162012 | 13 | 132 | 3.2 | 0.0 | 0.00 | 0.00 | 0.00 | 96 | 1012.5 |
| 20260509161512 | 13 | 105 | 3.2 | 0.0 | 0.00 | 0.00 | 0.00 | 96 | 1012.5 |
| 20260509161012 | 13 | 63 | 3.2 | 0.0 | 0.00 | 0.00 | 0.00 | 96 | 1012.4 |
| 20260509160512 | 13 | 57 | 1.6 | 0.0 | 0.00 | 0.00 | 0.00 | 96 | 1012.4 |
| 20260509160020 | 13 | 5 | 1.6 | 0.0 | 0.00 | 0.00 | 0.00 | 96 | 1012.4 |
| 20260509155510 | 13 | 32 | 1.6 | 0.0 | 0.00 | 0.00 | 0.00 | 96 | 1012.4 |
| 20260509155013 | 12 | 42 | 3.2 | 0.0 | 0.00 | 0.00 | 0.00 | 96 | 1012.4 |
| 20260509154510 | 12 | 44 | 4.8 | 0.0 | 0.00 | 0.00 | 0.00 | 96 | 1012.4 |
| 20260509154009 | 12 | 64 | 4.8 | 0.0 | 0.00 | 0.00 | 0.00 | 96 | 1012.5 |
| 20260509153509 | 12 | 63 | 3.2 | 0.0 | 0.00 | 0.00 | 0.00 | 96 | 1012.5 |
| 20260509153016 | 12 | 79 | 3.2 | 0.0 | 0.00 | 0.00 | 0.00 | 96 | 1012.5 |
| 20260509152509 | 12 | 69 | 3.2 | 0.0 | 0.00 | 0.00 | 0.00 | 96 | 1012.5 |
| 20260509152009 | 12 | 34 | 3.2 | 0.0 | 0.00 | 0.00 | 0.00 | 96 | 1012.5 |
| 20260509151509 | 12 | 61 | 3.2 | 0.0 | 0.00 | 0.00 | 0.00 | 96 | 1012.5 |
| 20260509151011 | 12 | 132 | 3.2 | 0.0 | 0.00 | 0.00 | 0.00 | 96 | 1012.4 |
| 20260509150508 | 12 | 50 | 3.2 | 0.0 | 0.00 | 0.00 | 0.00 | 96 | 1012.4 |
| 20260509150010 | 12 | 91 | 1.6 | 0.0 | 0.00 | 0.00 | 0.00 | 96 | 1012.4 |
| 20260509145508 | 12 | 26 | 1.6 | 0.0 | 0.00 | 0.00 | 0.00 | 96 | 1012.4 |
| 20260509145008 | 12 | 27 | 3.2 | 0.0 | 0.00 | 0.00 | 0.00 | 96 | 1012.4 |
| 20260509144507 | 12 | 24 | 4.8 | 0.0 | 0.00 | 0.00 | 0.00 | 96 | 1012.4 |
| 20260509144007 | 12 | 21 | 3.2 | 0.0 | 0.00 | 0.00 | 0.00 | 96 | 1012.3 |
| 20260509143509 | 12 | 67 | 1.6 | 0.0 | 0.00 | 0.00 | 0.00 | 96 | 1012.3 |
| 20260509143011 | 12 | 94 | 1.6 | 0.0 | 0.00 | 0.00 | 0.00 | 96 | 1012.3 |
| 20260509142506 | 12 | 30 | 3.2 | 0.0 | 0.00 | 0.00 | 0.00 | 96 | 1012.3 |
| 20260509142007 | 12 | 34 | 3.2 | 0.0 | 0.00 | 0.00 | 0.00 | 96 | 1012.3 |
| 20260509141507 | 12 | 67 | 3.2 | 0.0 | 0.00 | 0.00 | 0.00 | 96 | 1012.3 |
| 20260509141008 | 12 | 90 | 3.2 | 0.0 | 0.00 | 0.00 | 0.00 | 96 | 1012.2 |
| 20260509140506 | 12 | 71 | 3.2 | 0.0 | 0.00 | 0.00 | 0.00 | 96 | 1012.2 |
| 20260509140006 | 12 | 80 | 3.2 | 0.0 | 0.00 | 0.00 | 0.00 | 96 | 1012.2 |
| 20260509135506 | 12 | 26 | 3.2 | 0.0 | 0.00 | 0.00 | 0.00 | 96 | 1012.2 |
| 20260509135006 | 12 | 103 | 3.2 | 0.0 | 0.00 | 0.00 | 0.00 | 96 | 1012.2 |
| 20260509134506 | 12 | 24 | 3.2 | 0.0 | 0.00 | 0.00 | 0.00 | 96 | 1012.2 |
| 20260509134008 | 12 | 31 | 3.2 | 0.0 | 0.00 | 0.00 | 0.00 | 96 | 1012.1 |
| 20260509133506 | 12 | 37 | 3.2 | 0.0 | 0.00 | 0.00 | 0.00 | 96 | 1012.1 |
| 20260509133005 | 12 | 24 | 3.2 | 0.0 | 0.00 | 0.00 | 0.00 | 96 | 1012.1 |
| 20260509132505 | 12 | 55 | 3.2 | 0.0 | 0.00 | 0.00 | 0.00 | 96 | 1011.8 |
| 20260509132006 | 12 | 31 | 3.2 | 0.0 | 0.00 | 0.00 | 0.00 | 96 | 1011.8 |
| 20260509131505 | 12 | 63 | 4.8 | 0.0 | 0.00 | 0.00 | 0.00 | 96 | 1011.8 |
| 20260509131005 | 12 | 73 | 6.4 | 0.0 | 0.00 | 0.00 | 0.00 | 96 | 1011.7 |
| 20260509130505 | 12 | 30 | 4.8 | 0.0 | 0.00 | 0.00 | 0.00 | 96 | 1011.7 |
| 20260509130013 | 12 | 48 | 3.2 | 0.0 | 0.00 | 0.00 | 0.00 | 96 | 1011.5 |
| 20260509125505 | 12 | 69 | 3.2 | 0.0 | 0.00 | 0.00 | 0.00 | 96 | 1011.5 |
| 20260509125004 | 12 | 61 | 4.8 | 0.0 | 0.00 | 0.00 | 0.00 | 96 | 1011.5 |
| 20260509124515 | 12 | 67 | 4.8 | 0.0 | 0.00 | 0.00 | 0.00 | 96 | 1011.6 |
| 20260509124003 | 12 | 22 | 3.2 | 0.0 | 0.00 | 0.00 | 0.00 | 96 | 1011.6 |
| 20260509123504 | 12 | 59 | 3.2 | 0.0 | 0.00 | 0.00 | 0.00 | 96 | 1011.6 |
| 20260509123004 | 12 | 55 | 4.8 | 0.0 | 0.00 | 0.00 | 0.00 | 96 | 1011.7 |
| 20260509122504 | 12 | 88 | 4.8 | 0.0 | 0.00 | 0.00 | 0.00 | 96 | 1011.7 |
| 20260509122002 | 12 | 36 | 3.2 | 0.0 | 0.00 | 0.00 | 0.00 | 96 | 1011.7 |
| 20260509121502 | 12 | 82 | 3.2 | 0.0 | 0.00 | 0.00 | 0.00 | 96 | 1011.4 |
| 20260509121003 | 12 | 55 | 4.8 | 0.0 | 0.00 | 0.00 | 0.00 | 96 | 1011.4 |
| 20260509120501 | 12 | 78 | 1.6 | 0.0 | 0.00 | 0.00 | 0.00 | 96 | 1011.4 |
| 20260509120002 | 12 | 47 | 1.6 | 0.0 | 0.00 | 0.00 | 0.00 | 96 | 1011.5 |
| 20260509115500 | 12 | 25 | 3.2 | 0.0 | 0.00 | 0.00 | 0.00 | 96 | 1011.5 |
| 20260509115002 | 12 | 5 | 3.2 | 0.0 | 0.00 | 0.00 | 0.00 | 96 | 1011.5 |
| 20260509114627 | 12 | 22 | 3.2 | 0.0 | 0.00 | 0.00 | 0.00 | 95 | 1011.5 |
| 20260509114100 | 12 | 49 | 3.2 | 0.0 | 0.00 | 0.00 | 0.00 | 95 | 1011.5 |
| 20260509113600 | 12 | 355 | 3.2 | 0.0 | 0.00 | 0.00 | 0.00 | 95 | 1011.5 |
| 20260509113134 | 12 | 34 | 3.2 | 0.0 | 0.00 | 0.00 | 0.00 | 95 | 1011.5 |
| 20260509112600 | 12 | 51 | 3.2 | 0.0 | 0.00 | 0.00 | 0.00 | 96 | 1011.4 |
| 20260509112058 | 12 | 75 | 1.6 | 0.0 | 0.00 | 0.00 | 0.00 | 95 | 1011.4 |
| 20260509111558 | 12 | 71 | 1.6 | 0.0 | 0.00 | 0.00 | 0.00 | 95 | 1011.4 |
| 20260509111057 | 12 | 92 | 1.6 | 0.0 | 0.00 | 0.00 | 0.00 | 95 | 1011.4 |
| 20260509110557 | 12 | 99 | 1.6 | 0.0 | 0.00 | 0.00 | 0.00 | 95 | 1011.4 |
| 20260509105557 | 12 | 60 | 3.2 | 0.0 | 0.00 | 0.00 | 0.00 | 95 | 1011.4 |
| 20260509105057 | 12 | 62 | 3.2 | 0.0 | 0.00 | 0.00 | 0.00 | 95 | 1011.4 |
| 20260509104557 | 12 | 81 | 3.2 | 0.0 | 0.00 | 0.00 | 0.00 | 95 | 1011.4 |
| 20260509104056 | 12 | 25 | 1.6 | 0.0 | 0.00 | 0.00 | 0.00 | 95 | 1011.5 |
| 20260509103556 | 12 | 124 | 1.6 | 0.0 | 0.00 | 0.00 | 0.00 | 95 | 1011.5 |
| 20260509103107 | 12 | 57 | 3.2 | 0.0 | 0.00 | 0.00 | 0.00 | 95 | 1011.5 |
| 20260509102556 | 12 | 46 | 3.2 | 0.0 | 0.00 | 0.00 | 0.00 | 96 | 1011.5 |
| 20260509102056 | 12 | 34 | 4.8 | 0.0 | 0.00 | 0.00 | 0.00 | 95 | 1011.5 |
| 20260509101602 | 12 | 35 | 4.8 | 0.0 | 0.00 | 0.00 | 0.00 | 95 | 1011.5 |
| 20260509101055 | 12 | 49 | 3.2 | 0.0 | 0.00 | 0.00 | 0.00 | 95 | 1011.6 |
| 20260509100554 | 12 | 40 | 3.2 | 0.0 | 0.00 | 0.00 | 0.00 | 95 | 1011.6 |
| 20260509100054 | 12 | 41 | 3.2 | 0.0 | 0.00 | 0.00 | 0.00 | 95 | 1011.6 |
| 20260509095553 | 12 | 73 | 1.6 | 0.0 | 0.00 | 0.00 | 0.00 | 96 | 1011.7 |
| 20260509095053 | 12 | 5 | 3.2 | 0.0 | 0.00 | 0.00 | 0.00 | 96 | 1011.7 |
| 20260509094559 | 12 | 27 | 3.2 | 0.0 | 0.00 | 0.00 | 0.00 | 96 | 1011.7 |
| 20260509094058 | 12 | 86 | 1.6 | 0.0 | 0.00 | 0.00 | 0.00 | 95 | 1011.9 |
| 20260509093554 | 12 | 53 | 1.6 | 0.0 | 0.00 | 0.00 | 0.00 | 95 | 1011.9 |
| 20260509093053 | 12 | 98 | 1.6 | 0.0 | 0.00 | 0.00 | 0.00 | 95 | 1011.9 |
| 20260509092552 | 12 | 133 | 1.6 | 0.0 | 0.00 | 0.00 | 0.00 | 95 | 1011.9 |
| 20260509092052 | 12 | 118 | 1.6 | 0.0 | 0.00 | 0.00 | 0.00 | 95 | 1011.9 |
| 20260509091554 | 12 | 112 | 1.6 | 0.0 | 0.00 | 0.00 | 0.00 | 95 | 1011.9 |
| 20260509091051 | 12 | 112 | 1.6 | 0.0 | 0.00 | 0.00 | 0.00 | 95 | 1012.1 |
| 20260509090552 | 12 | 151 | 0.0 | 0.0 | 0.00 | 0.00 | 0.00 | 95 | 1012.1 |
| 20260509090050 | 12 | 111 | 0.0 | 0.0 | 0.00 | 0.00 | 0.00 | 95 | 1012.1 |
| 20260509085550 | 12 | 111 | 0.0 | 0.0 | 0.00 | 0.00 | 0.00 | 95 | 1012.2 |
| 20260509085054 | 12 | 111 | 0.0 | 0.0 | 0.00 | 0.00 | 0.00 | 95 | 1012.2 |
| 20260509084601 | 12 | 111 | 0.0 | 0.0 | 0.00 | 0.00 | 0.00 | 95 | 1012.2 |
| 20260509084050 | 12 | 111 | 3.2 | 0.0 | 0.00 | 0.00 | 0.00 | 95 | 1012.2 |
| 20260509083550 | 12 | 120 | 3.2 | 0.0 | 0.00 | 0.00 | 0.00 | 95 | 1012.2 |
| 20260509083049 | 12 | 69 | 1.6 | 0.0 | 0.00 | 0.00 | 0.00 | 95 | 1012.2 |
| 20260509082549 | 12 | 149 | 0.0 | 0.0 | 0.00 | 0.00 | 0.00 | 95 | 1012.3 |
| 20260509082049 | 12 | 149 | 0.0 | 0.0 | 0.00 | 0.00 | 0.00 | 95 | 1012.3 |
| 20260509081553 | 12 | 143 | 0.0 | 0.0 | 0.00 | 0.00 | 0.00 | 95 | 1012.3 |
| 20260509081049 | 12 | 143 | 0.0 | 0.0 | 0.00 | 0.00 | 0.00 | 95 | 1012.4 |
| 20260509080547 | 12 | 143 | 0.0 | 0.0 | 0.00 | 0.00 | 0.00 | 95 | 1012.4 |
| 20260509080051 | 12 | 143 | 0.0 | 0.0 | 0.00 | 0.00 | 0.00 | 95 | 1012.4 |
| 20260509075547 | 12 | 143 | 0.0 | 0.0 | 0.00 | 0.00 | 0.00 | 95 | 1012.7 |
| 20260509075046 | 12 | 143 | 0.0 | 0.0 | 0.00 | 0.00 | 0.00 | 95 | 1012.7 |
| 20260509074546 | 12 | 143 | 0.0 | 0.0 | 0.00 | 0.00 | 0.00 | 95 | 1012.7 |
| 20260509074046 | 12 | 143 | 0.0 | 0.0 | 0.00 | 0.00 | 0.00 | 95 | 1012.7 |
| 20260509073546 | 12 | 143 | 0.0 | 0.0 | 0.00 | 0.00 | 0.00 | 95 | 1012.7 |
| 20260509073047 | 12 | 143 | 1.6 | 0.0 | 0.00 | 0.00 | 0.00 | 95 | 1012.7 |
| 20260509072548 | 12 | 143 | 0.0 | 0.0 | 0.00 | 0.00 | 0.00 | 95 | 1012.7 |
| 20260509072044 | 12 | 143 | 0.0 | 0.0 | 0.00 | 0.00 | 0.00 | 95 | 1012.7 |
| 20260509071548 | 12 | 143 | 0.0 | 0.0 | 0.00 | 0.00 | 0.00 | 95 | 1012.7 |
| 20260509071044 | 12 | 143 | 0.0 | 0.0 | 0.00 | 0.00 | 0.00 | 95 | 1012.9 |
| 20260509070546 | 12 | 143 | 0.0 | 0.0 | 0.00 | 0.00 | 0.00 | 95 | 1012.9 |
| 20260509070049 | 12 | 143 | 0.0 | 0.0 | 0.00 | 0.00 | 0.00 | 95 | 1012.9 |
| 20260509065542 | 12 | 143 | 0.0 | 0.0 | 0.00 | 0.00 | 0.00 | 95 | 1012.9 |
| 20260509065043 | 12 | 143 | 1.6 | 0.0 | 0.00 | 0.00 | 0.00 | 95 | 1012.9 |
| 20260509064554 | 12 | 143 | 1.6 | 0.0 | 0.00 | 0.00 | 0.00 | 95 | 1012.9 |
| 20260509064041 | 12 | 170 | 0.0 | 0.0 | 0.00 | 0.00 | 0.00 | 95 | 1013.0 |
| 20260509063541 | 12 | 170 | 1.6 | 0.0 | 0.00 | 0.00 | 0.00 | 95 | 1013.0 |
| 20260509063042 | 12 | 170 | 1.6 | 0.0 | 0.00 | 0.00 | 0.00 | 95 | 1013.0 |
| 20260509062542 | 12 | 167 | 1.6 | 0.0 | 0.00 | 0.00 | 0.00 | 95 | 1013.2 |
| 20260509062042 | 12 | 171 | 1.6 | 0.0 | 0.00 | 0.00 | 0.00 | 95 | 1013.2 |
| 20260509061551 | 12 | 180 | 1.6 | 0.0 | 0.00 | 0.00 | 0.00 | 95 | 1013.2 |
| 20260509061042 | 12 | 159 | 1.6 | 0.0 | 0.00 | 0.00 | 0.00 | 95 | 1013.2 |
| 20260509060541 | 12 | 154 | 1.6 | 0.0 | 0.00 | 0.00 | 0.00 | 95 | 1013.2 |
| 20260509060042 | 12 | 183 | 1.6 | 0.0 | 0.00 | 0.00 | 0.00 | 95 | 1013.2 |
| 20260509055540 | 12 | 183 | 1.6 | 0.0 | 0.00 | 0.00 | 0.00 | 95 | 1013.2 |
| 20260509055040 | 12 | 156 | 1.6 | 0.0 | 0.00 | 0.00 | 0.00 | 95 | 1013.2 |
| 20260509054546 | 12 | 195 | 1.6 | 0.0 | 0.00 | 0.00 | 0.00 | 95 | 1013.2 |
| 20260509054040 | 12 | 171 | 1.6 | 0.0 | 0.00 | 0.00 | 0.00 | 95 | 1013.1 |
| 20260509053541 | 12 | 165 | 1.6 | 0.0 | 0.00 | 0.00 | 0.00 | 95 | 1013.1 |
| 20260509053040 | 12 | 182 | 1.6 | 0.0 | 0.00 | 0.00 | 0.00 | 95 | 1013.1 |
| 20260509052542 | 12 | 180 | 1.6 | 0.0 | 0.00 | 0.00 | 0.00 | 95 | 1013.1 |
| 20260509052040 | 12 | 178 | 1.6 | 0.0 | 0.00 | 0.00 | 0.00 | 95 | 1013.1 |
| 20260509051542 | 12 | 228 | 1.6 | 0.0 | 0.00 | 0.00 | 0.00 | 95 | 1013.1 |
| 20260509051040 | 12 | 194 | 1.6 | 0.0 | 0.00 | 0.00 | 0.00 | 95 | 1013.0 |
| 20260509050543 | 12 | 236 | 1.6 | 0.0 | 0.00 | 0.00 | 0.00 | 95 | 1013.0 |
| 20260509050040 | 12 | 166 | 1.6 | 0.0 | 0.00 | 0.00 | 0.00 | 95 | 1013.0 |
| 20260509045539 | 12 | 198 | 1.6 | 0.0 | 0.00 | 0.00 | 0.00 | 95 | 1013.0 |
| 20260509045039 | 12 | 180 | 0.0 | 0.0 | 0.00 | 0.00 | 0.00 | 95 | 1013.0 |
| 20260509044539 | 12 | 202 | 0.0 | 0.0 | 0.00 | 0.00 | 0.00 | 95 | 1013.0 |
| 20260509044039 | 12 | 214 | 0.0 | 0.0 | 0.00 | 0.00 | 0.00 | 94 | 1013.0 |
| 20260509043542 | 12 | 214 | 0.0 | 0.0 | 0.00 | 0.00 | 0.00 | 94 | 1013.0 |
| 20260509043039 | 12 | 216 | 1.6 | 0.0 | 0.00 | 0.00 | 0.00 | 94 | 1013.0 |
| 20260509042538 | 12 | 202 | 3.2 | 0.0 | 0.00 | 0.00 | 0.00 | 94 | 1012.9 |
| 20260509042038 | 12 | 172 | 3.2 | 0.0 | 0.00 | 0.00 | 0.00 | 94 | 1012.9 |
| 20260509041538 | 12 | 194 | 1.6 | 0.0 | 0.00 | 0.00 | 0.00 | 94 | 1012.9 |
| 20260509041039 | 12 | 221 | 1.6 | 0.0 | 0.00 | 0.00 | 0.00 | 94 | 1012.8 |
| 20260509040538 | 12 | 205 | 3.2 | 0.0 | 0.00 | 0.00 | 0.00 | 94 | 1012.8 |
| 20260509040042 | 12 | 216 | 3.2 | 0.0 | 0.00 | 0.00 | 0.00 | 94 | 1012.8 |
| 20260509035539 | 12 | 186 | 1.6 | 0.0 | 0.00 | 0.00 | 0.00 | 94 | 1012.7 |
| 20260509035038 | 12 | 162 | 3.2 | 0.0 | 0.00 | 0.00 | 0.00 | 94 | 1012.7 |
| 20260509034539 | 12 | 180 | 3.2 | 0.0 | 0.00 | 0.00 | 0.00 | 94 | 1012.7 |
| 20260509034036 | 12 | 171 | 3.2 | 0.0 | 0.00 | 0.00 | 0.00 | 94 | 1012.4 |
| 20260509033540 | 12 | 200 | 1.6 | 0.0 | 0.00 | 0.00 | 0.00 | 94 | 1012.4 |
| 20260509033037 | 13 | 191 | 1.6 | 0.0 | 0.00 | 0.00 | 0.00 | 94 | 1012.4 |
| 20260509032538 | 13 | 227 | 3.2 | 0.0 | 0.00 | 0.00 | 0.00 | 94 | 1012.4 |
| 20260509032037 | 13 | 180 | 3.2 | 0.0 | 0.00 | 0.00 | 0.00 | 94 | 1012.4 |
| 20260509031543 | 13 | 212 | 3.2 | 0.0 | 0.00 | 0.00 | 0.00 | 94 | 1012.4 |
| 20260509031037 | 13 | 193 | 3.2 | 0.0 | 0.00 | 0.00 | 0.00 | 94 | 1012.3 |
| 20260509030536 | 13 | 200 | 3.2 | 0.0 | 0.00 | 0.00 | 0.00 | 94 | 1012.3 |
| 20260509030036 | 13 | 198 | 1.6 | 0.0 | 0.00 | 0.00 | 0.00 | 94 | 1012.3 |
| 20260509025535 | 13 | 196 | 1.6 | 0.0 | 0.00 | 0.00 | 0.00 | 94 | 1012.2 |
| 20260509025039 | 13 | 188 | 1.6 | 0.0 | 0.00 | 0.00 | 0.00 | 94 | 1012.2 |
| 20260509024535 | 13 | 187 | 3.2 | 0.0 | 0.00 | 0.00 | 0.00 | 94 | 1012.2 |
| 20260509024036 | 13 | 186 | 3.2 | 0.0 | 0.00 | 0.00 | 0.00 | 94 | 1012.1 |
| 20260509023536 | 13 | 177 | 3.2 | 0.0 | 0.00 | 0.00 | 0.00 | 94 | 1012.1 |
| 20260509023036 | 13 | 229 | 1.6 | 0.0 | 0.00 | 0.00 | 0.00 | 94 | 1012.1 |
| 20260509022535 | 13 | 197 | 3.2 | 0.0 | 0.00 | 0.00 | 0.00 | 94 | 1011.9 |
| 20260509022034 | 13 | 229 | 3.2 | 0.0 | 0.00 | 0.00 | 0.00 | 94 | 1011.9 |
| 20260509021535 | 13 | 182 | 4.8 | 0.0 | 0.00 | 0.00 | 0.00 | 93 | 1011.9 |
| 20260509021037 | 13 | 202 | 4.8 | 0.0 | 0.00 | 0.00 | 0.00 | 93 | 1011.9 |
| 20260509020534 | 13 | 176 | 4.8 | 0.0 | 0.00 | 0.00 | 0.00 | 93 | 1011.9 |
| 20260509020033 | 13 | 247 | 6.4 | 0.0 | 0.00 | 0.00 | 0.00 | 93 | 1011.9 |
| 20260509015533 | 13 | 165 | 6.4 | 0.0 | 0.00 | 0.00 | 0.00 | 93 | 1011.8 |
| 20260509015034 | 14 | 211 | 4.8 | 0.0 | 0.00 | 0.00 | 0.00 | 93 | 1011.8 |
| 20260509014540 | 14 | 198 | 4.8 | 0.0 | 0.00 | 0.00 | 0.00 | 92 | 1011.8 |
| 20260509014033 | 14 | 191 | 4.8 | 0.0 | 0.00 | 0.00 | 0.00 | 93 | 1011.8 |
| 20260509013533 | 14 | 202 | 3.2 | 0.0 | 0.00 | 0.00 | 0.00 | 92 | 1011.8 |
| 20260509013036 | 14 | 279 | 3.2 | 0.0 | 0.00 | 0.00 | 0.00 | 92 | 1011.8 |
| 20260509012533 | 15 | 196 | 3.2 | 0.0 | 0.00 | 0.00 | 0.00 | 92 | 1011.9 |
| 20260509012034 | 15 | 209 | 3.2 | 0.0 | 0.00 | 0.00 | 0.00 | 92 | 1011.9 |
| 20260509011533 | 15 | 242 | 4.8 | 0.0 | 0.00 | 0.00 | 0.00 | 92 | 1011.9 |
| 20260509011032 | 15 | 171 | 6.4 | 0.0 | 0.00 | 0.00 | 0.00 | 92 | 1011.8 |
| 20260509010532 | 15 | 206 | 4.8 | 0.0 | 0.00 | 0.00 | 0.00 | 92 | 1011.8 |
| 20260509010038 | 15 | 166 | 4.8 | 0.0 | 0.00 | 0.00 | 0.00 | 91 | 1011.8 |
| 20260509005533 | 15 | 210 | 4.8 | 0.0 | 0.00 | 0.00 | 0.00 | 91 | 1011.8 |
| 20260509005033 | 15 | 186 | 3.2 | 0.0 | 0.00 | 0.00 | 0.00 | 91 | 1011.8 |
| 20260509004533 | 15 | 162 | 4.8 | 0.0 | 0.00 | 0.00 | 0.00 | 90 | 1011.8 |
| 20260509004032 | 15 | 170 | 4.8 | 0.0 | 0.00 | 0.00 | 0.00 | 89 | 1012.0 |
| 20260509003532 | 15 | 215 | 4.8 | 0.0 | 0.00 | 0.00 | 0.00 | 89 | 1012.0 |
| 20260509003031 | 16 | 185 | 4.8 | 0.0 | 0.00 | 0.00 | 0.00 | 89 | 1012.0 |
| 20260509002530 | 16 | 240 | 6.4 | 0.0 | 0.00 | 0.00 | 0.00 | 88 | 1012.0 |
| 20260509002030 | 16 | 144 | 8.0 | 0.0 | 0.00 | 0.00 | 0.00 | 86 | 1012.0 |
| 20260509001531 | 16 | 211 | 8.0 | 0.0 | 0.00 | 0.00 | 0.00 | 85 | 1012.0 |
| 20260509001030 | 17 | 211 | 6.4 | 0.0 | 0.00 | 0.00 | 0.00 | 84 | 1011.9 |
| 20260509000530 | 17 | 172 | 6.4 | 0.0 | 0.00 | 0.00 | 0.00 | 84 | 1011.9 |
| 20260509000030 | 17 | 199 | 6.4 | 0.0 | 0.00 | 0.00 | 0.00 | 84 | 1011.9 |
| 20260508235531 | 17 | 198 | 6.4 | 0.0 | 0.00 | 0.00 | 0.00 | 84 | 1011.9 |
| 20260508235031 | 17 | 215 | 4.8 | 0.0 | 0.00 | 0.00 | 0.00 | 83 | 1011.9 |
| 20260508234529 | 17 | 236 | 4.8 | 0.0 | 0.00 | 0.00 | 0.00 | 83 | 1011.9 |
| 20260508234030 | 17 | 162 | 4.8 | 0.0 | 0.00 | 0.00 | 0.00 | 84 | 1012.0 |
| 20260508233529 | 17 | 254 | 4.8 | 0.0 | 0.00 | 0.00 | 0.00 | 83 | 1012.0 |
| 20260508233029 | 17 | 204 | 4.8 | 0.0 | 0.00 | 0.00 | 0.00 | 83 | 1012.0 |
| 20260508232528 | 17 | 189 | 4.8 | 0.0 | 0.00 | 0.00 | 0.00 | 83 | 1012.0 |
| 20260508232028 | 17 | 173 | 6.4 | 0.0 | 0.00 | 0.00 | 0.00 | 82 | 1012.0 |
| 20260508231528 | 18 | 158 | 4.8 | 0.0 | 0.00 | 0.00 | 0.00 | 81 | 1012.0 |
| 20260508231027 | 18 | 213 | 4.8 | 0.0 | 0.00 | 0.00 | 0.00 | 83 | 1012.3 |
| 20260508230526 | 17 | 207 | 4.8 | 0.0 | 0.00 | 0.00 | 0.00 | 82 | 1012.3 |
| 20260508230025 | 17 | 245 | 4.8 | 0.0 | 0.00 | 0.00 | 0.00 | 82 | 1012.3 |
| 20260508225528 | 17 | 250 | 3.2 | 0.0 | 0.00 | 0.00 | 0.00 | 82 | 1012.3 |
| 20260508225025 | 17 | 178 | 3.2 | 0.0 | 0.00 | 0.00 | 0.00 | 83 | 1012.3 |
| 20260508224524 | 17 | 215 | 4.8 | 0.0 | 0.00 | 0.00 | 0.00 | 83 | 1012.3 |
| 20260508224023 | 17 | 217 | 4.8 | 0.0 | 0.00 | 0.00 | 0.00 | 84 | 1012.6 |
| 20260508223523 | 17 | 194 | 4.8 | 0.0 | 0.00 | 0.00 | 0.00 | 84 | 1012.6 |
| 20260508223029 | 17 | 194 | 4.8 | 0.0 | 0.00 | 0.00 | 0.00 | 85 | 1012.6 |